Location: Huisseau
(47.5933°N, 1.4533°E)
Time: 18:54:15
(UTC+00:00)

CENTAUR R/B - Pass Details

Date: 21 November 2025
Orbit: 633 x 1547 km, 63.4° (Epoch: 06 December)

Event Time Altitude Azimuth Distance (km) Brightness Sun altitude
Exits shadow 06:04:28 13° 294° (WNW) 3,313 4.6 -10.7°
Maximum altitude 06:09:55 23° 253° (WSW) 2,781 4.4 -9.8°
Drops below altitude 10° 06:16:36 10° 207° (SSW) 3,717 5.5 -8.7°
Sets 06:20:29 0° 194° (SSW) 4,696 6.1 -8.1°
